{"data":{"norad_id":58675,"intl_designator":"2023-211J","name":"STARLINK-31126","alt_names":[],"object_type":"PAYLOAD","status":"ACTIVE","operator":null,"country":"US","launch_date":"2023-12-29","launch_site_code":"AFETR","launch_vehicle":null,"mission":null,"orbit_class":"UNKNOWN","rcs_meters":null,"size_class":null,"mass_kg":null,"dimensions":null,"purposes":["comms"],"wikipedia_slug":null,"has_3d_model":false,"image_url":null,"decayed_at":null,"tle_current":{"epoch":"2026-09-19T18:44:59.129088Z","epoch_age_seconds":211797,"freshness":"STALE","line1":"1 58675U 23211J   26262.78123992  .00002408  00000+0  97003-4 0  9995","line2":"2 58675  43.0040  68.6941 0001132 261.4121  98.6602 15.27579619152159","mean_motion":15.27579619,"eccentricity":0.0001132,"inclination_deg":43.004,"raan_deg":68.6941,"arg_perigee_deg":261.4121,"mean_anomaly_deg":98.6602,"bstar":9.7003e-5,"rev_number":15215,"period_min":94.266772225114,"perigee_km":482.27355049574,"apogee_km":483.82692328617,"semimajor_km":6861.187236891,"source":"CELESTRAK","updated_at":"2026-09-21T09:00:33.943487Z"}}}